Weather in Zandvoort

Netherlands     52°22′16″N   4°31′55″E
temp.,
°C
wind,
m/s
gust,
m/s
humid.,
%
clouds,
%
prec.,
mm/h
press.,
hPa
HPBL,
m
4 july, mon
mon423:00+16wsw34693 0.0 1020331
02:00+16ssw35775 0.0 1019238
05:00+16sw367599 0.1 1019318
08:00+17wnw3569100 0.2 1019583
11:00+18w466342 0.0 1020985
14:00+19w57605 0.0 1020941
17:00+18w46590 0.0 1020726
20:00+18wnw45640 0.0 1019516
5 july, tue
tue523:00+17nw12712 0.0 1020157
02:00+16wsw127398 0.0 1021145
05:00+17wnw236692 0.0 1020318
08:00+16nw446899 0.0 1021719
11:00+17wnw676419 0.0 1023961
14:00+16wnw676380 0.0 10241155
17:00+16nw67622 0.0 10241107
20:00+16nnw56643 0.0 10251045
6 july, wed
wed623:00+15nw35675 0.0 1026462
02:00+15nw466699 0.0 1025450
05:00+14wnw357045 0.0 1025345
08:00+16wsw3564100 0.0 1025607
11:00+18wsw6767100 0.0 1024911
14:00+17w6875100 0.0 1024798
17:00+17w61084100 0.1 1023865
20:00+18wnw6108277 0.6 1022905
7 july, thu
thu723:00+17w598451 0.0 1022545
02:00+17w61186100 0.1 1020922
05:00+17wnw91292100 1.0 1019863
08:00+16nnw91288100 1.7 1020887
11:00+17nnw9127639 0.4 10221153
14:00+18nnw911705 0.7 10251195
17:00+17nnw911630 0.0 10261224
20:00+16nnw810660 0.0 10271205
8 july, fri
fri823:00+15nnw79700 0.0 1029985
02:00+15nnw58745 0.0 1029645
05:00+15nnw58755 0.0 1029546
08:00+16nnw587756 0.0 1030817
11:00+17nnw467478 0.0 1030812
14:00+18nw4575100 0.1 1032648
17:00+18wnw5666100 0.0 1031524
20:00+18nw578112 0.0 1031555